Date String (YYYY-MM-DD hh:mm:ss) UTC,Instrument flags,absolute air pressure of the measurement (hPa),sample flow rate (lpm),inlet stack bypass flow (lpm),air temperature of the measurement (°C),ambient temperature measured by the external sensor (°C),aerosol sample conditioner tube jacket temperature (°C),OPC LED temperature (°C),internal box temperature (°C),relative humidity of the measurement (%),span deviation,mass concentration of particles derived from Lorenz-Mie calculation of OPC scattering (μg/m³),mass concentration of particles derived from Lorenz-Mie calculation of OPC scattering (μg/m³),mass concentration of particles derived from Lorenz-Mie calculation of OPC scattering (μg/m³)
DateTimeUTC,F1_M11,P_M11,Q1_M11,Q2_M11,T1_M11,T2_M11,T3_M11,T4_M11,T5_M11,U1_M11,ZSPAN_M11,X2_M11,X0_M11,X1_M11
2023-12-04 22:00:00,SystemResetWarning,0829.6,5.00,000.00,022.7,021.9,000.0,030.9,024.0,14.9,0000.0,0000.44,0002.11,0000.26
2023-12-04 22:01:00,SystemResetWarning,0829.6,5.00,000.00,022.7,021.9,000.0,030.9,024.0,14.8,0000.0,0000.44,0002.11,0000.26
2023-12-04 22:02:00,SystemResetWarning,0829.6,5.00,000.00,022.7,021.9,000.0,030.9,024.0,14.7,0000.0,0000.45,0002.14,0000.25
2023-12-04 22:03:00,SystemResetWarning,0829.6,5.00,000.00,022.7,021.9,000.0,030.9,024.0,14.5,0000.0,0000.46,0002.17,0000.25
2023-12-04 22:04:00,SystemResetWarning,0829.5,5.00,000.00,022.7,021.9,000.0,030.9,024.0,14.0,0000.0,0000.46,0001.35,0000.25
2023-12-04 22:05:00,SystemResetWarning,0829.6,5.00,000.00,022.7,021.9,000.0,030.9,024.0,13.7,0000.0,0000.46,0000.90,0000.24
2023-12-04 22:06:00,SystemResetWarning,0829.7,5.00,000.00,022.7,021.9,000.0,030.9,024.0,13.8,0000.0,0000.43,0000.92,0000.24
2023-12-04 22:07:00,SystemResetWarning,0829.7,5.00,000.00,022.7,021.9,000.0,030.9,024.0,13.8,0000.0,0000.43,0000.89,0000.24
2023-12-04 22:08:00,SystemResetWarning,0829.7,5.00,000.00,022.7,021.9,000.0,030.9,024.0,14.2,0000.0,0000.45,0000.92,0000.24
2023-12-04 22:09:00,SystemResetWarning,0829.6,5.00,000.00,022.7,021.9,000.0,030.9,024.0,14.1,0000.0,0000.48,0001.02,0000.24
2023-12-04 22:10:00,SystemResetWarning,0829.6,5.00,000.00,022.7,021.9,000.0,031.0,024.0,13.8,0000.0,0000.49,0001.03,0000.24
2023-12-04 22:11:00,SystemResetWarning,0829.7,5.00,000.00,022.7,021.9,000.0,030.9,024.0,14.1,0000.0,0000.50,0001.02,0000.25
2023-12-04 22:12:00,SystemResetWarning,0829.7,5.00,000.00,022.7,021.9,000.0,031.0,024.0,14.4,0000.0,0000.51,0001.01,0000.24
2023-12-04 22:13:00,SystemResetWarning,0829.7,5.00,000.00,022.7,021.9,000.0,031.0,024.0,14.5,0000.0,0000.49,0000.96,0000.24
2023-12-04 22:14:00,SystemResetWarning,0829.7,5.00,000.00,022.7,021.9,000.0,031.0,024.0,14.3,0000.0,0000.46,0000.92,0000.23
2023-12-04 22:15:00,SystemResetWarning,0829.7,5.00,000.00,022.7,021.9,000.0,031.0,024.0,14.5,0000.0,0000.46,0000.94,0000.23
2023-12-04 22:16:00,SystemResetWarning,0829.7,5.00,000.00,022.7,021.8,000.0,031.0,024.0,14.4,0000.0,0000.46,0000.88,0000.23
2023-12-04 22:17:00,SystemResetWarning,0829.7,5.00,000.00,022.7,021.9,000.0,031.0,024.0,14.4,0000.0,0000.44,0000.78,0000.22
2023-12-04 22:18:00,SystemResetWarning,0829.7,5.00,000.00,022.7,021.8,000.0,031.0,024.0,14.4,0000.0,0000.42,0000.73,0000.22
2023-12-04 22:19:00,SystemResetWarning,0829.8,5.00,000.00,022.7,021.8,000.0,031.0,024.0,14.4,0000.0,0000.38,0000.66,0000.21
2023-12-04 22:20:00,SystemResetWarning,0829.8,5.00,000.00,022.7,021.8,000.0,031.0,024.0,14.4,0000.0,0000.35,0000.59,0000.21
2023-12-04 22:21:00,SystemResetWarning,0829.8,5.00,000.00,022.7,021.8,000.0,031.0,024.0,14.5,0000.0,0000.33,0000.55,0000.20
2023-12-04 22:22:00,SystemResetWarning,0829.8,5.00,000.00,022.7,021.8,000.0,031.0,024.0,14.5,0000.0,0000.31,0000.53,0000.19
2023-12-04 22:23:00,SystemResetWarning,0829.8,5.00,000.00,022.7,021.8,000.0,031.0,024.0,14.7,0000.0,0000.30,0000.54,0000.19
2023-12-04 22:24:00,SystemResetWarning,0829.8,5.00,000.00,022.7,021.8,000.0,031.0,024.0,14.6,0000.0,0000.32,0000.57,0000.19
2023-12-04 22:25:00,SystemResetWarning,0829.9,5.00,000.00,022.7,021.7,000.0,031.0,024.0,14.7,0000.0,0000.32,0000.57,0000.20
2023-12-04 22:26:00,SystemResetWarning,0829.9,5.00,000.00,022.7,021.7,000.0,031.0,024.0,14.8,0000.0,0000.33,0000.59,0000.21
2023-12-04 22:27:00,SystemResetWarning,0829.8,5.00,000.00,022.7,021.7,000.0,031.0,024.0,14.8,0000.0,0000.33,0000.60,0000.22
2023-12-04 22:28:00,SystemResetWarning,0829.9,5.00,000.00,022.7,021.7,000.0,031.0,024.0,14.7,0000.0,0000.34,0000.84,0000.22
2023-12-04 22:29:00,SystemResetWarning,0829.9,5.00,000.00,022.7,021.7,000.0,031.0,024.0,14.8,0000.0,0000.36,0000.96,0000.23
2023-12-04 22:30:00,SystemResetWarning,0829.9,5.00,000.00,022.7,021.7,000.0,031.0,023.9,14.9,0000.0,0000.35,0000.92,0000.23
2023-12-04 22:31:00,SystemResetWarning,0829.8,5.00,000.00,022.7,021.7,000.0,031.0,024.0,14.9,0000.0,0000.33,0000.87,0000.23
2023-12-04 22:32:00,SystemResetWarning,0829.8,5.00,000.00,022.7,021.7,000.0,031.0,024.0,14.8,0000.0,0000.36,0000.91,0000.24
2023-12-04 22:33:00,SystemResetWarning,0829.9,5.00,000.00,022.7,021.7,000.0,031.0,024.0,14.7,0000.0,0000.34,0000.87,0000.25
2023-12-04 22:34:00,SystemResetWarning,0829.9,5.01,000.00,022.7,021.7,000.0,031.0,023.9,14.7,0000.0,0000.35,0000.89,0000.25
2023-12-04 22:35:00,SystemResetWarning,0829.9,5.01,000.00,022.7,021.7,000.0,031.0,023.9,14.9,0000.0,0000.37,0000.93,0000.26
2023-12-04 22:36:00,SystemResetWarning,0829.9,5.00,000.00,022.7,021.7,000.0,031.0,023.9,14.9,0000.0,0000.37,0000.92,0000.26
2023-12-04 22:37:00,SystemResetWarning,0829.8,5.00,000.00,022.7,021.7,000.0,031.0,023.9,14.9,0000.0,0000.35,0000.87,0000.25
2023-12-04 22:38:00,SystemResetWarning,0829.8,5.00,000.00,022.7,021.7,000.0,031.0,023.9,15.0,0000.0,0000.37,0000.88,0000.26
2023-12-04 22:39:00,SystemResetWarning,0829.7,5.00,000.00,022.7,021.7,000.0,031.0,024.0,14.9,0000.0,0000.38,0000.75,0000.26
2023-12-04 22:40:00,SystemResetWarning,0829.7,5.00,000.00,022.7,021.7,000.0,031.0,024.0,14.9,0000.0,0000.40,0000.67,0000.26
2023-12-04 22:41:00,SystemResetWarning,0829.8,5.01,000.00,022.7,021.6,000.0,030.9,024.0,14.9,0000.0,0000.42,0000.82,0000.27
2023-12-04 22:42:00,SystemResetWarning,0829.8,5.01,000.00,022.7,021.6,000.0,030.9,023.9,15.0,0000.0,0000.44,0000.98,0000.28
2023-12-04 22:43:00,SystemResetWarning,0829.9,4.99,000.00,022.7,021.6,000.0,030.9,023.9,15.1,0000.0,0000.43,0000.96,0000.28
2023-12-04 22:44:00,SystemResetWarning,0830.0,4.99,000.00,022.7,021.6,000.0,030.9,023.9,15.1,0000.0,0000.46,0001.53,0000.28
2023-12-04 22:45:00,SystemResetWarning,0829.9,5.00,000.00,022.7,021.6,000.0,030.9,023.9,15.1,0000.0,0000.48,0002.13,0000.29
2023-12-04 22:46:00,SystemResetWarning,0830.0,5.00,000.00,022.7,021.6,000.0,030.9,023.9,15.1,0000.0,0000.46,0002.09,0000.29
2023-12-04 22:47:00,SystemResetWarning,0830.0,5.01,000.00,022.7,021.6,000.0,030.9,024.0,15.1,0000.0,0000.47,0002.10,0000.29
2023-12-04 22:48:00,SystemResetWarning,0829.9,5.01,000.00,022.7,021.6,000.0,030.9,024.0,15.0,0000.0,0000.49,0002.15,0000.30
2023-12-04 22:49:00,SystemResetWarning,0830.0,5.00,000.00,022.7,021.6,000.0,030.9,023.9,15.0,0000.0,0000.48,0002.13,0000.29
2023-12-04 22:50:00,SystemResetWarning,0830.0,5.00,000.00,022.7,021.6,000.0,030.9,023.9,15.1,0000.0,0000.46,0002.09,0000.29
2023-12-04 22:51:00,SystemResetWarning,0829.9,4.99,000.00,022.7,021.6,000.0,030.9,023.9,15.1,0000.0,0000.47,0002.08,0000.30
2023-12-04 22:52:00,SystemResetWarning,0830.0,5.01,000.00,022.7,021.6,000.0,030.9,023.9,15.0,0000.0,0000.47,0001.97,0000.29
2023-12-04 22:53:00,SystemResetWarning,0830.0,5.00,000.00,022.7,021.6,000.0,030.9,023.9,15.0,0000.0,0000.46,0001.85,0000.29
2023-12-04 22:54:00,SystemResetWarning,0829.9,5.01,000.00,022.7,021.6,000.0,030.9,023.9,15.0,0000.0,0000.46,0001.86,0000.29
2023-12-04 22:55:00,SystemResetWarning,0829.9,5.00,000.00,022.6,021.6,000.0,030.9,023.9,14.9,0000.0,0000.44,0001.36,0000.30
2023-12-04 22:56:00,SystemResetWarning,0829.9,5.00,000.00,022.6,021.5,000.0,030.9,023.9,15.0,0000.0,0000.42,0000.68,0000.29
2023-12-04 22:57:00,SystemResetWarning,0829.9,4.99,000.00,022.6,021.5,000.0,030.9,023.9,15.1,0000.0,0000.42,0000.69,0000.30
2023-12-04 22:58:00,SystemResetWarning,0829.9,5.00,000.00,022.6,021.6,000.0,030.9,023.9,15.1,0000.0,0000.45,0000.79,0000.31
2023-12-04 22:59:00,SystemResetWarning,0829.9,5.00,000.00,022.6,021.6,000.0,030.9,023.8,15.1,0000.0,0000.46,0000.90,0000.30
